STARLINK-2164, 47750

Orbit data source: Space-Track

STARLINK-2164, 47750 is a payload satellite owned by SpaceX/Seattle (US) in LEO that was launched on Thu, 04 Mar 2021 UTC via an FALCON 9 launch vehicle from the Air Force Eastern Test Range (AFETR). Payload-class satellites include a variety of spacecraft equipped with specific instruments for various scientific and technological missions. These include communications satellites like Starlink; space stations such as the ISS; scientific satellites like the Hubble; Earth observation satellites from companies like Planet Labs, Umbra, and HawkEye 360; GPS; miniature CubeSats for education and research; and military/defense satellites.

Loading next visibility...
Identifier
47750, 2021-017AE
Orbit
LEO
Last TLE update
8 hours ago
Origin
Manufacturer
SpaceX/Seattle
Mission
Operational Commercial Communications
Bus & Motor
STARLINK, Unknown motor
Mass
260 kg wet, ~248 kg dry
Launch date (UTC)
2021-03-04 (4 years ago)
Launch vehicle
FALCON 9
Launch site
Air Force Eastern Test Range (AFETR)
Object type
Payload
Rocket body
Debris
Shape & HBR
Box + 1 Pan, 8.86 m
Radar Cross Section
13.562 m², Large (>1 m²)

Expand to show TLE details & history

TLE from 8 hours ago
0 STARLINK-2164
1 47750U 21017AE  25182.59711504  .00001756  00000-0  13678-3 0  9991
2 47750  53.0542 248.8171 0001076  73.1462 286.9645 15.06395207240028
Epoch: 2025-07-01T14:19Z
TLE epoch observation values (Epoch: 2025-07-01T14:19:50.739Z)
Latitude
-0.00001°
Longitude
113.96539°
Altitude
547.888 km
Speed
7.589 km/s
True Right ascension
16h 35m 16s
True Declination
0° 00' 00"
Sunlit
Object was in full shadow at epoch
Visualization orbit readout
Latitude
-52.29831°
Longitude
37.1472°
Altitude
566.052 km
Speed
7.578 km/s
Apparent Right ascension
17h 35m 21s
Apparent Declination
-76° 28' 43"
Sunlit
Object is in daylight
Visualization observer readout
Local Sidereal Time
09:36:20
Azimuth
163.176° S
Elevation
-45.47°
Doppler factor
1
Orbital elements
Apogee altitude
548.242 km
Perigee altitude
546.752 km
Semi-major axis
6,925.634 km
Eccentricity
0.00011
Inclination
53.0542°
RAAN
248.8171°
Arg. of periapsis
73.1462°
True anomaly
Unknown
Mean anomaly
286.9645°
Eccentric anomaly
Unknown
Mean motion
3.76577 °/min
Orbital period
95.6 mins
BSTAR
0.00013678
Loading maneuver chart data...
Loading SW <> Apogee altitude chart data...
Loading historical data...
Loading historical data...
Loading historical data...
Loading historical data...
Loading historical data...
Loading historical data...
Loading historical data...

STARLINK-2164 Visibility forecast

Observer location: undefined°, undefined°

Span
Click to sort rows by Start time (UTC) header in descending order
Start Az.
Max El. time (UTC)
Max El. Az.
Max El.
End time (UTC)
End Az.
7 mins2025-07-02 06:23:59.865Z195.58° SSW2025-07-02 06:27:59.865Z118.141° SE28.115°2025-07-02 06:30:59.865Z69° E
5 mins2025-07-02 08:04:59.865Z275.193° WNW2025-07-02 08:06:59.865Z327.132° NNW31.285°2025-07-02 08:09:59.865Z31.992° NE
5 mins2025-07-02 13:06:59.865Z340.061° N2025-07-02 13:08:59.865Z36.117° NE31.427°2025-07-02 13:11:59.865Z96.275° ESE
6 mins2025-07-02 14:45:59.865Z280.984° WNW2025-07-02 14:47:59.865Z239.044° WSW28.081°2025-07-02 14:51:59.865Z164.244° S
|